Weather History for Quillayute, WA

Change the Weather History Date:

Tuesday, March 11, 2014

  Actual Average Record
Temperature  
Mean Temperature 44 °F 44 °F  
Max Temperature 55 °F 51 °F 62 °F (1981)
Min Temperature 33 °F 37 °F 24 °F (1975)
Degree Days  
Heating Degree Days 21 21  
Month to date heating degree days 199 239  
Since 1 July heating degree days 3393 4084  
Cooling Degree Days 0 0  
Month to date cooling degree days 0 0  
Year to date cooling degree days 0 0  
Moisture  
Dew Point 37 °F    
Average Humidity 77    
Maximum Humidity 100    
Minimum Humidity 54    
Precipitation  
Precipitation 0.00 in 0.35 in 3.05 in (2007)
Month to date precipitation 7.88 3.96  
Year to date precipitation 30.45 28.92  
Sea Level Pressure  
Sea Level Pressure 30.52 in    
Wind  
Wind Speed 4 mph (NE)    
Max Wind Speed 9 mph    
Max Gust Speed 12 mph    
Visibility 6 miles    
Events      
T = Trace of Precipitation, MM = Missing Value Source: NWS Daily Summary

Daily Weather History Graph

Daily Weather History Graph

Search for Another Location

Airport:

Trip Planner

Search our weather history database for the weather conditions in past years. The results will help you decide how hot, cold, wet, or windy it might be!

Date:

Astronomy

Mar. 11, 2014 Rise Set
Actual Time 7:39 AM PDT 7:17 PM PDT
Civil Twilight 7:08 AM PDT 7:48 PM PDT
Nautical Twilight 6:32 AM PDT 8:24 PM PDT
Astronomical Twilight 5:55 AM PDT 9:01 PM PDT
Moon 2:44 PM PDT (3/11) 4:52 AM PDT (3/11)
Length of Visible Light 12h 40m
Length of Day
11h 38m
Waxing Gibbous, 79% of the Moon is Illuminated
Mar 11
Waxing Gibbous
Mar 16
Full
Mar 23
Last Quarter
Mar 30
New
Apr 7
First Quarter

Hourly Weather History & Observations

Time (PDT) Temp. Windchill Dew Point Humidity Pressure Visibility Wind Dir Wind Speed Gust Speed Precip Events Conditions
12:42 AM 37.0 °F 34.5 °F 36.0 °F 96% 30.49 in 6.0 mi East 3.5 mph - N/A   Mostly Cloudy
12:53 AM 36.0 °F 33.3 °F 36.0 °F 100% 30.50 in 6.0 mi East 3.5 mph - N/A   Mostly Cloudy
1:00 AM 36.0 °F 32.1 °F 36.0 °F 100% 30.49 in 6.0 mi East 4.6 mph - N/A   Scattered Clouds
1:53 AM 37.0 °F 33.3 °F 37.0 °F 100% 30.50 in 7.0 mi East 4.6 mph - N/A   Clear
2:53 AM 35.1 °F 32.2 °F 34.0 °F 96% 30.53 in 6.0 mi ENE 3.5 mph - N/A   Clear
3:53 AM 34.0 °F 28.8 °F 34.0 °F 100% 30.53 in 7.0 mi East 5.8 mph - N/A   Partly Cloudy
4:53 AM 35.1 °F 31.0 °F 35.1 °F 100% 30.54 in 7.0 mi East 4.6 mph - N/A   Clear
5:53 AM 35.1 °F 29.3 °F 35.1 °F 100% 30.56 in 7.0 mi ENE 6.9 mph - N/A   Clear
6:53 AM 34.0 °F 29.8 °F 33.1 °F 96% 30.57 in 7.0 mi ENE 4.6 mph - N/A   Clear
7:53 AM 34.0 °F 28.8 °F 34.0 °F 100% 30.57 in 5.0 mi ENE 5.8 mph - N/A   Clear
8:53 AM 37.0 °F 33.3 °F 35.1 °F 93% 30.57 in 6.0 mi East 4.6 mph - N/A   Clear
9:53 AM 41.0 °F 36.4 °F 37.9 °F 89% 30.58 in 6.0 mi East 6.9 mph - N/A   Clear
10:53 AM 46.0 °F 44.8 °F 37.9 °F 73% 30.57 in 6.0 mi Variable 3.5 mph - N/A   Haze
11:53 AM 50.0 °F - 39.0 °F 66% 30.57 in 6.0 mi Calm Calm - N/A   Haze
12:53 PM 53.1 °F - 39.0 °F 59% 30.56 in 6.0 mi Variable 3.5 mph - N/A   Haze
1:53 PM 53.1 °F - 39.0 °F 59% 30.54 in 6.0 mi Variable 4.6 mph - N/A   Haze
2:53 PM 54.0 °F - 39.0 °F 57% 30.53 in 6.0 mi SW 8.1 mph - N/A   Haze
3:53 PM 53.1 °F - 37.0 °F 55% 30.52 in 6.0 mi WSW 6.9 mph - N/A   Haze
4:53 PM 54.0 °F - 37.0 °F 53% 30.51 in 6.0 mi WNW 5.8 mph - N/A   Haze
5:53 PM 52.0 °F - 37.0 °F 57% 30.48 in 6.0 mi WNW 5.8 mph - N/A   Haze
6:53 PM 48.9 °F - 39.0 °F 69% 30.48 in 6.0 mi NW 4.6 mph - N/A   Haze
7:53 PM 43.0 °F 40.3 °F 39.9 °F 89% 30.48 in 7.0 mi NNW 4.6 mph - N/A   Clear
8:53 PM 42.1 °F - 39.9 °F 92% 30.46 in 7.0 mi Calm Calm - N/A   Clear
9:53 PM 39.0 °F 36.8 °F 37.9 °F 96% 30.45 in 6.0 mi North 3.5 mph - N/A   Clear
10:53 PM 37.9 °F - 37.0 °F 97% 30.45 in 6.0 mi Calm Calm - N/A   Clear
11:53 PM 36.0 °F - 36.0 °F 100% 30.44 in 6.0 mi Calm Calm - N/A   Clear